When you browse on this site, cookies collect data to enhance your experience and personalize the content and advertising you see.
Visit our Privacy Policy to learn more. By continuing to use the site, you agree to this use of cookies and data.
  • In Romania
  • List of Countries
  • For 7 days
  • Water Temperature
  • Weather Map
  • Weather Widgets
  • user-avatar
    Login

    Hourly Weather Biskira

    Today, 2 June, Tuesday

    Time Temperature Precipitation Wind Pressure Humidity
    00:00 +30°C° 0 mm 3 mps 751 mmHg 40%
    01:00 +29°C° 0 mm 2 mps 751 mmHg 42%
    02:00 +29°C° 0 mm 2 mps 751 mmHg 43%
    03:00 +28°C° 0 mm 1 mps 751 mmHg 45%
    04:00 +28°C° 0 mm 2 mps 751 mmHg 46%
    05:00 +27°C° 0 mm 2 mps 751 mmHg 48%
    06:00 +27°C° 0 mm 2 mps 751 mmHg 49%
    07:00 +28°C° 0 mm 3 mps 751 mmHg 47%
    08:00 +29°C° 0 mm 3 mps 751 mmHg 44%
    09:00 +30°C° 0 mm 3 mps 752 mmHg 42%
    10:00 +31°C° 0 mm 3 mps 751 mmHg 39%
    11:00 +32°C° 0 mm 2 mps 751 mmHg 37%
    12:00 +34°C° 0 mm 2 mps 751 mmHg 34%
    13:00 +34°C° 0 mm 2 mps 750 mmHg 32%
    14:00 +35°C° 0 mm 2 mps 750 mmHg 30%
    15:00 +35°C° 0 mm 1 mps 749 mmHg 28%
    16:00 +36°C° 0 mm 2 mps 749 mmHg 28%
    17:00 +36°C° 0 mm 3 mps 749 mmHg 28%
    18:00 +36°C° 0 mm 3 mps 749 mmHg 28%
    19:00 +35°C° 0 mm 3 mps 749 mmHg 30%
    20:00 +35°C° 0 mm 2 mps 750 mmHg 31%
    21:00 +34°C° 0 mm 2 mps 750 mmHg 33%
    22:00 +34°C° 0 mm 2 mps 750 mmHg 34%
    23:00 +32°C° 0 mm 2 mps 750 mmHg 35%

    Tomorrow, 3 June, Wednesday

    Time Temperature Precipitation Wind Pressure Humidity
    00:00 +31°C° 0 mm 3 mps 749 mmHg 36%
    01:00 +30°C° 0 mm 3 mps 749 mmHg 36%
    02:00 +29°C° 0 mm 4 mps 749 mmHg 35%
    03:00 +28°C° 0 mm 5 mps 748 mmHg 35%
    04:00 +28°C° 0 mm 5 mps 749 mmHg 35%
    05:00 +28°C° 0 mm 4 mps 749 mmHg 34%
    06:00 +28°C° 0 mm 4 mps 749 mmHg 34%
    07:00 +29°C° 0 mm 5 mps 749 mmHg 32%
    08:00 +30°C° 0 mm 5 mps 749 mmHg 31%
    09:00 +33°C° 0 mm 5 mps 750 mmHg 29%
    10:00 +34°C° 0 mm 5 mps 749 mmHg 28%
    11:00 +34°C° 0 mm 4 mps 748 mmHg 27%
    12:00 +35°C° 0 mm 4 mps 748 mmHg 26%
    13:00 +36°C° 0 mm 3 mps 747 mmHg 25%
    14:00 +37°C° 0 mm 3 mps 747 mmHg 24%
    15:00 +37°C° 0 mm 3 mps 746 mmHg 23%
    16:00 +37°C° 0.1 mm 3 mps 746 mmHg 24%
    17:00 +36°C° 0.1 mm 4 mps 746 mmHg 25%
    18:00 +36°C° 0.1 mm 5 mps 746 mmHg 27%
    19:00 +35°C° 0.1 mm 4 mps 746 mmHg 29%
    20:00 +34°C° 0.1 mm 4 mps 747 mmHg 30%
    21:00 +34°C° 0.1 mm 3 mps 747 mmHg 32%
    22:00 +33°C° 0 mm 3 mps 747 mmHg 34%
    23:00 +32°C° 0 mm 2 mps 747 mmHg 35%

    Day after tomorrow, 4 June, Thursday

    Time Temperature Precipitation Wind Pressure Humidity
    00:00 +31°C° 0 mm 1 mps 746 mmHg 36%
    01:00 +30°C° 0 mm 2 mps 746 mmHg 38%
    02:00 +30°C° 0 mm 3 mps 746 mmHg 39%
    03:00 +29°C° 0 mm 5 mps 746 mmHg 40%
    04:00 +29°C° 0 mm 5 mps 746 mmHg 39%
    05:00 +29°C° 0 mm 5 mps 746 mmHg 38%
    06:00 +30°C° 0 mm 5 mps 746 mmHg 36%
    07:00 +32°C° 0 mm 5 mps 746 mmHg 33%
    08:00 +34°C° 0 mm 6 mps 746 mmHg 30%
    09:00 +35°C° 0 mm 6 mps 746 mmHg 26%
    10:00 +38°C° 0 mm 7 mps 745 mmHg 24%
    11:00 +39°C° 0 mm 7 mps 745 mmHg 22%
    12:00 +40°C° 0 mm 8 mps 744 mmHg 19%
    13:00 +40°C° 0 mm 6 mps 743 mmHg 18%
    14:00 +41°C° 0 mm 5 mps 743 mmHg 17%
    15:00 +40°C° 0 mm 3 mps 742 mmHg 17%
    16:00 +40°C° 0 mm 3 mps 742 mmHg 17%
    17:00 +41°C° 0 mm 4 mps 742 mmHg 17%
    18:00 +40°C° 0 mm 4 mps 742 mmHg 18%
    19:00 +39°C° 0 mm 7 mps 742 mmHg 19%
    20:00 +37°C° 0 mm 10 mps 743 mmHg 20%
    21:00 +36°C° 0 mm 13 mps 744 mmHg 21%
    22:00 +34°C° 0 mm 12 mps 745 mmHg 23%
    23:00 +32°C° 0 mm 11 mps 745 mmHg 25%

    5 June, Friday

    Time Temperature Precipitation Wind Pressure Humidity
    00:00 +31°C° 0 mm 11 mps 745 mmHg 27%
    01:00 +31°C° 0 mm 10 mps 745 mmHg 29%
    02:00 +29°C° 0 mm 10 mps 746 mmHg 31%
    03:00 +28°C° 0 mm 10 mps 746 mmHg 34%
    04:00 +28°C° 0 mm 9 mps 746 mmHg 34%
    05:00 +29°C° 0 mm 9 mps 746 mmHg 34%
    06:00 +29°C° 0 mm 8 mps 747 mmHg 34%
    07:00 +31°C° 0 mm 8 mps 747 mmHg 30%
    08:00 +32°C° 0 mm 8 mps 748 mmHg 27%
    09:00 +33°C° 0 mm 8 mps 749 mmHg 24%
    10:00 +34°C° 0 mm 8 mps 749 mmHg 22%
    11:00 +35°C° 0 mm 8 mps 749 mmHg 20%
    12:00 +36°C° 0 mm 7 mps 749 mmHg 18%
    13:00 +37°C° 0 mm 8 mps 749 mmHg 18%
    14:00 +38°C° 0 mm 8 mps 749 mmHg 18%
    15:00 +38°C° 0 mm 9 mps 748 mmHg 18%
    16:00 +37°C° 0 mm 8 mps 749 mmHg 18%
    17:00 +37°C° 0 mm 8 mps 749 mmHg 19%
    18:00 +35°C° 0 mm 8 mps 749 mmHg 20%
    19:00 +34°C° 0 mm 7 mps 750 mmHg 21%
    20:00 +34°C° 0 mm 6 mps 750 mmHg 21%
    21:00 +33°C° 0 mm 4 mps 751 mmHg 22%
    22:00 +32°C° 0 mm 4 mps 751 mmHg 23%
    23:00 +31°C° 0 mm 3 mps 751 mmHg 25%

    6 June, Saturday

    Time Temperature Precipitation Wind Pressure Humidity
    00:00 +30°C° 0 mm 2 mps 751 mmHg 26%
    01:00 +30°C° 0 mm 2 mps 751 mmHg 27%
    02:00 +29°C° 0 mm 2 mps 751 mmHg 28%
    03:00 +29°C° 0 mm 2 mps 751 mmHg 30%
    04:00 +29°C° 0 mm 3 mps 751 mmHg 33%
    05:00 +28°C° 0 mm 4 mps 751 mmHg 37%
    06:00 +28°C° 0 mm 5 mps 751 mmHg 40%
    07:00 +29°C° 0 mm 6 mps 752 mmHg 39%
    08:00 +30°C° 0 mm 6 mps 752 mmHg 37%
    09:00 +32°C° 0 mm 6 mps 752 mmHg 35%
    10:00 +33°C° 0 mm 6 mps 752 mmHg 33%
    11:00 +34°C° 0 mm 5 mps 751 mmHg 30%
    12:00 +35°C° 0 mm 5 mps 751 mmHg 27%
    13:00 +35°C° 0 mm 4 mps 750 mmHg 26%
    14:00 +36°C° 0 mm 3 mps 750 mmHg 24%
    15:00 +37°C° 0 mm 3 mps 749 mmHg 23%
    16:00 +37°C° 0 mm 4 mps 749 mmHg 23%
    17:00 +37°C° 0 mm 5 mps 749 mmHg 22%
    18:00 +38°C° 0 mm 6 mps 748 mmHg 22%
    19:00 +36°C° 0 mm 6 mps 748 mmHg 23%
    20:00 +35°C° 0 mm 6 mps 748 mmHg 24%
    21:00 +35°C° 0 mm 7 mps 749 mmHg 24%
    22:00 +35°C° 0 mm 7 mps 748 mmHg 25%
    23:00 +34°C° 0 mm 7 mps 748 mmHg 25%

    7 June, Sunday

    Time Temperature Precipitation Wind Pressure Humidity
    00:00 +34°C° 0 mm 7 mps 748 mmHg 25%
    01:00 +34°C° 0 mm 7 mps 748 mmHg 25%
    02:00 +33°C° 0 mm 7 mps 747 mmHg 26%
    03:00 +33°C° 0 mm 8 mps 747 mmHg 26%
    04:00 +33°C° 0 mm 8 mps 747 mmHg 26%
    05:00 +33°C° 0 mm 8 mps 748 mmHg 26%
    06:00 +34°C° 0 mm 8 mps 748 mmHg 25%
    07:00 +35°C° 0 mm 7 mps 748 mmHg 23%
    08:00 +36°C° 0 mm 6 mps 748 mmHg 21%
    09:00 +38°C° 0 mm 6 mps 748 mmHg 19%
    10:00 +39°C° 0 mm 5 mps 748 mmHg 18%
    11:00 +40°C° 0 mm 4 mps 748 mmHg 17%
    12:00 +40°C° 0 mm 3 mps 748 mmHg 16%
    13:00 +42°C° 0 mm 3 mps 747 mmHg 16%
    14:00 +42°C° 0 mm 4 mps 747 mmHg 16%
    15:00 +42°C° 0 mm 4 mps 746 mmHg 15%
    16:00 +42°C° 0 mm 5 mps 746 mmHg 16%
    17:00 +41°C° 0 mm 6 mps 747 mmHg 17%
    18:00 +41°C° 0 mm 7 mps 747 mmHg 17%
    19:00 +40°C° 0 mm 7 mps 747 mmHg 20%
    20:00 +38°C° 0 mm 7 mps 748 mmHg 22%
    21:00 +36°C° 0 mm 7 mps 749 mmHg 25%
    22:00 +35°C° 0 mm 7 mps 749 mmHg 27%
    23:00 +34°C° 0 mm 7 mps 749 mmHg 30%
    Show more